Dewpoint
44 44 45 45 46 46 46 46 45 43 43 42 42 42 42 42 42 43 46 46 46 46 46 47 47 47 47 46 46 47 46 47 47 43 42 41 39 39 38 39 39 39 41
43 44 44 44 45 45 45 44 43 42 41 41 40 40 40 40 41 41 44 43 45 45 45 45 43 44 43 43 43 43 41 41 44 43 41 39 38 37 36 37 37 38 38
42 43 43 42 42 43 43 42 41 41 40 40 39 39 39 39 39 40 40 40 40 39 40 40 40 41 40 40 41 40 40 39 39 40 38 38 37 36 35 36 36 35 37
41 41 41 41 41 41 41 40 40 40 40 39 38 38 38 38 38 39 39 39 38 38 38 38 38 39 39 39 39 39 38 38 38 38 37 36 35 35 35 32 32 30 29
40 40 40 40 40 40 40 39 39 39 39 39 38 38 38 38 38 38 39 39 38 38 38 37 37 38 38 38 37 36 36 36 36 36 36 35 34 33 30 30 26 25 25
40 39 39 39 39 39 39 39 38 38 38 38 37 38 37 37 38 39 39 39 37 36 35 35 34 35 35 36 34 34 34 34 34 34 32 31 30 27 26 24 24 23 21
39 39 39 39 38 38 39 38 37 37 37 37 37 37 37 38 39 40 39 37 36 34 33 29 30 31 29 27 29 29 28 31 31 30 26 24 24 25 25 25 25 24 23
39 39 39 39 38 38 38 37 37 37 37 36 36 37 36 37 38 38 37 35 34 34 31 28 25 25 25 25 25 25 27 27 27 27 26 27 27 27 26 26 24 24 24
39 39 39 39 38 38 37 37 37 37 37 37 36 36 35 36 36 36 34 32 31 29 29 30 30 27 26 26 22 20 22 26 26 25 25 25 25 24 24 23 24 22 19
39 39 39 38 38 37 37 37 36 36 36 36 35 36 35 34 34 31 28 26 23 23 26 26 29 30 30 27 24 19 15 20 22 21 20 19 17 17 20 20 20 18 21
39 39 38 38 37 37 37 36 36 36 35 34 34 34 34 33 32 29 28 24 22 21 21 23 24 27 27 26 27 19 19 21 23 18 13 12 13 17 19 22 23 21 21
39 38 38 37 37 37 36 35 35 34 33 33 32 31 31 31 30 29 26 22 19 15 17 18 21 26 26 26 26 26 22 24 18 13 11 10 11 15 21 22 23 24 24
38 37 37 37 37 36 35 34 33 33 32 32 31 29 27 28 27 30 28 25 23 20 18 19 23 25 24 22 22 25 25 23 18 12 10 12 15 20 23 23 23 24 24
37 36 36 36 36 35 35 34 33 32 32 31 30 29 27 25 25 25 29 31 29 29 24 21 22 25 25 22 20 18 20 21 17 13 12 15 20 23 22 21 21 22 22
36 36 36 36 36 34 34 34 33 33 33 32 31 29 26 23 23 23 23 27 27 30 28 24 23 24 24 22 20 17 16 17 16 15 15 15 16 17 19 20 21 20 21
35 35 35 35 35 34 33 33 35 34 34 34 33 30 27 26 25 25 24 23 26 28 27 22 21 22 22 22 20 18 15 13 14 14 14 15 16 17 17 19 19 19 19
35 35 35 35 34 33 32 32 31 33 34 35 35 33 30 25 25 26 24 22 23 26 24 22 22 22 23 24 22 19 16 14 15 14 14 14 15 16 19 18 18 19 18
36 36 35 35 34 33 32 32 32 31 31 33 35 32 30 26 24 24 23 22 22 23 22 22 23 24 24 24 22 21 19 17 16 15 14 14 15 17 17 17 17 17 17
36 36 36 35 34 34 33 32 32 32 32 31 31 32 33 31 29 30 25 23 21 21 22 23 25 25 24 24 23 23 21 19 18 17 17 16 16 16 16 17 17 19 19
36 36 36 35 34 34 33 32 32 32 32 30 27 27 27 31 30 30 30 26 23 23 24 24 24 25 24 24 25 24 22 21 23 21 19 19 18 17 18 18 17 17 17
37 36 37 36 34 34 33 32 32 32 32 31 30 27 27 27 29 29 29 29 27 24 24 23 23 24 25 24 24 22 22 22 22 21 21 20 20 20 20 20 19 19 20
34 36 36 36 34 34 33 34 33 33 32 32 31 29 30 31 30 31 30 29 28 26 25 25 24 25 28 26 25 26 24 22 22 22 21 21 21 22 22 21 21 21 21
32 33 35 36 35 34 34 33 33 32 32 32 32 30 31 31 31 27 24 25 26 28 29 29 29 29 26 26 26 25 23 22 23 23 22 23 22 22 22 21 21 21 20
31 32 33 34 34 34 33 33 32 32 32 31 31 31 30 30 31 31 31 31 29 29 27 28 28 27 25 25 25 24 24 24 24 25 25 23 22 23 23 22 21 21 20
31 31 31 32 32 33 32 32 32 31 31 31 30 30 30 30 30 29 29 30 30 29 27 25 27 27 26 26 27 26 27 26 26 25 25 24 23 22 22 22 21 21 20
30 31 31 31 31 31 31 31 31 31 30 31 30 30 30 30 29 29 29 29 29 28 27 26 27 26 26 26 26 27 27 27 28 27 26 23 22 22 21 21 20 19 18
Wind_Speed
13 11 11 11 9 7 6 4 6 13 10 7 5 4 2 1 1 3 6 5 5 5 3 4 5 3 3 1 2 2 2 1 4 2 3 5 4 7 5 4 3 4 4
13 14 12 10 9 9 8 7 7 7 8 8 6 3 2 2 1 2 4 3 7 6 5 5 4 5 4 3 5 5 3 2 3 6 4 3 4 4 2 1 2 0 1
13 13 12 12 11 10 11 10 8 8 7 6 4 5 4 3 2 2 0 3 4 4 4 4 2 5 5 5 4 5 3 2 2 3 4 2 3 1 1 1 2 0 1
13 13 13 11 9 8 8 8 7 6 7 6 6 6 5 4 1 0 2 6 7 7 7 7 5 5 5 5 4 3 2 2 2 5 4 3 3 2 2 1 3 4 2
14 13 12 10 10 11 11 9 8 7 7 9 8 6 4 3 2 3 4 6 8 7 7 7 6 7 8 6 6 4 4 4 4 4 4 4 4 3 2 1 2 1 1
16 16 15 15 14 12 11 10 9 8 8 8 6 6 5 4 5 6 6 7 8 9 9 7 6 7 7 8 8 7 4 3 4 4 3 3 3 3 2 1 2 1 2
18 16 16 15 14 13 12 10 8 7 6 6 6 6 6 5 6 4 6 6 8 9 10 8 6 4 4 7 7 7 8 8 5 4 4 4 5 4 4 2 2 1 2
20 19 17 17 16 14 13 12 8 6 8 7 7 6 7 5 7 7 8 9 8 8 8 8 9 5 4 3 6 6 5 6 5 6 7 6 6 5 3 3 2 1 3
21 20 18 18 17 17 15 12 9 10 9 8 7 8 8 7 8 7 7 9 9 8 7 7 6 6 6 4 5 6 5 3 4 6 5 4 4 3 3 3 2 0 1
21 20 18 18 18 18 15 12 10 9 10 9 8 9 10 10 10 9 9 10 10 9 6 5 7 10 7 5 5 5 5 6 5 2 2 1 2 2 3 3 5 3 3
15 15 16 17 17 16 12 10 12 11 11 11 11 9 9 11 11 12 12 9 9 9 8 7 6 8 8 6 6 4 4 5 4 3 2 2 3 3 3 5 4 4 4
14 15 16 16 13 12 12 11 12 12 12 12 11 10 9 9 11 13 12 10 8 10 9 7 8 9 8 7 5 6 5 4 2 2 2 3 5 5 5 5 5 5 4
14 15 15 14 13 12 12 12 11 12 12 12 11 11 12 12 11 13 14 13 11 7 7 9 10 10 8 6 5 5 5 5 3 4 5 5 5 6 7 4 3 3 3
14 14 14 15 12 11 11 11 12 13 13 13 13 12 13 13 14 13 11 12 13 10 10 8 8 8 7 5 4 4 5 7 6 7 7 5 2 4 6 5 3 3 5
13 13 14 13 13 13 13 14 14 14 15 15 14 14 14 15 16 15 15 14 12 12 10 6 7 7 8 7 7 7 7 7 8 7 7 7 7 6 8 6 7 6 8
14 14 14 13 12 13 12 11 16 15 17 17 14 14 13 13 13 17 19 18 17 16 12 10 11 11 10 9 9 9 9 10 10 10 9 10 10 8 6 4 5 7 10
15 13 13 13 13 14 13 14 14 13 15 18 19 16 16 14 14 16 17 17 16 16 12 11 11 11 11 10 12 11 12 12 11 11 13 13 11 10 9 9 8 7 11
15 15 15 14 13 13 14 14 13 13 15 15 17 16 16 14 13 13 14 13 13 16 13 13 14 12 12 14 13 12 13 10 10 12 12 12 12 11 11 12 11 12 13
16 14 14 13 14 14 13 13 13 13 13 11 10 12 18 19 19 17 15 14 15 15 14 14 13 14 14 14 13 12 12 13 12 12 13 14 13 11 12 12 12 12 12
12 15 15 14 14 14 14 14 14 14 13 13 12 14 9 13 15 15 15 14 15 14 14 15 14 15 15 15 14 14 13 12 11 13 13 12 13 12 13 12 12 13 13
10 12 16 13 14 15 15 16 15 14 14 14 15 15 16 15 15 15 15 16 17 17 17 17 16 16 14 14 14 13 14 14 13 13 12 13 12 11 11 12 12 12 12
10 11 13 15 14 14 15 15 15 15 15 15 13 13 17 15 13 14 15 16 15 15 14 14 14 15 14 16 16 15 15 15 13 13 12 12 11 12 11 12 12 13 13
8 10 12 13 14 16 15 13 14 14 15 14 12 12 13 15 14 14 14 13 12 12 11 13 14 12 13 14 14 14 14 15 13 11 11 12 12 12 12 13 13 13 13
8 9 11 12 12 13 13 14 14 14 13 12 12 12 12 13 13 14 13 11 12 13 12 12 12 13 13 13 12 12 12 10 11 10 13 11 12 12 12 13 13 15 15
6 7 9 9 9 11 12 12 12 12 12 11 11 11 11 11 12 11 11 10 10 11 12 12 12 13 15 14 12 13 11 14 10 11 11 13 14 14 14 13 13 12 13
4 4 7 6 6 7 8 9 9 9 9 9 9 9 9 9 9 10 10 10 10 11 11 11 12 14 14 15 15 15 15 16 16 18 13 13 13 13 12 15 16 15 15
Wind_Direction
173 160 154 136 128 116 149 176 150 134 145 146 136 145 155 205 285 288 251 234 239 229 221 210 206 190 192 150 77 67 14 309 208 97 107 133 78 86 72 64 72 47 36
159 151 156 153 149 149 148 151 139 134 131 132 139 151 176 153 38 328 247 242 233 224 212 188 181 141 118 76 109 99 112 29 208 172 144 141 94 77 47 103 79 111 79
164 162 164 162 164 166 165 158 146 141 143 140 152 154 146 104 81 43 83 130 106 111 116 142 134 144 134 116 127 127 118 94 85 135 135 106 92 96 179 186 166 56 254
162 161 164 173 173 166 155 149 150 149 150 159 135 131 122 103 99 264 131 134 118 98 88 87 97 120 121 107 102 116 134 130 107 117 110 118 129 191 165 116 102 40 17
168 174 181 172 165 154 150 148 144 146 147 144 145 149 148 169 183 237 220 187 153 134 111 103 98 103 100 112 127 119 137 136 136 140 152 155 161 181 202 189 139 55 34
185 186 179 172 166 163 156 151 149 150 152 159 173 180 181 177 183 217 224 182 155 150 138 113 87 84 96 94 97 92 90 177 180 182 196 194 156 135 130 180 110 98 225
197 199 191 184 182 179 173 168 169 177 176 187 186 177 174 170 188 192 176 151 150 145 143 140 121 93 95 101 99 81 81 80 104 174 173 191 152 144 180 161 131 170 245
196 198 195 189 187 181 177 176 168 190 196 195 194 183 166 167 152 142 142 140 142 149 155 149 141 147 132 150 122 115 106 87 95 98 121 122 116 126 158 145 162 229 295
198 200 194 188 186 182 185 184 193 195 195 195 192 179 170 162 162 162 163 150 154 158 162 159 156 159 149 153 146 146 153 138 131 124 127 119 118 145 147 125 172 177 259
196 196 189 187 187 189 187 183 197 194 198 182 181 181 182 177 169 170 161 150 163 171 177 176 158 179 170 165 158 156 171 193 176 123 91 77 95 131 106 123 153 196 207
185 185 186 187 189 189 185 186 195 189 180 182 186 185 188 187 187 185 181 177 189 182 180 187 187 185 187 186 164 157 181 167 173 159 175 197 194 165 146 130 135 168 191
181 182 181 182 179 179 183 196 194 185 184 188 188 195 203 205 198 203 199 199 196 187 191 192 194 193 193 203 198 197 185 156 169 207 243 238 225 207 177 179 170 171 178
181 184 180 175 173 179 184 195 192 188 187 193 196 204 209 212 215 213 207 208 199 187 183 187 190 194 196 197 210 219 208 183 204 225 243 252 235 191 159 173 215 233 250
190 189 180 178 181 180 188 197 199 196 197 198 198 210 211 208 210 213 212 210 206 199 195 193 191 195 197 208 219 223 195 201 212 232 245 253 204 176 207 209 234 236 265
194 193 193 192 191 193 201 203 208 211 204 203 206 202 203 215 216 207 207 210 209 201 182 189 203 202 209 224 234 237 231 222 226 222 231 244 240 231 241 233 238 245 239
201 198 200 202 194 198 204 215 222 221 220 220 216 206 214 219 210 210 213 213 211 205 192 205 212 212 220 225 228 235 230 228 229 233 238 238 243 243 249 244 235 242 257
213 205 199 202 202 198 200 205 217 226 229 226 224 217 216 218 218 211 210 210 210 205 210 211 217 218 226 231 230 227 232 229 226 229 229 234 237 243 252 252 258 262 271
216 208 202 205 206 203 203 208 208 209 217 222 224 221 219 214 212 210 208 207 210 216 210 212 219 219 225 230 230 228 235 233 222 224 227 231 232 239 249 254 255 263 272
215 211 207 206 206 208 205 207 209 214 219 223 219 227 226 225 223 221 217 211 211 214 215 217 216 219 226 230 232 233 235 234 228 224 228 230 235 236 249 252 256 263 267
229 218 207 207 208 206 205 209 210 216 219 224 223 230 213 210 216 217 216 214 216 218 215 220 219 221 221 223 225 229 232 229 229 231 232 233 236 230 240 249 251 257 258
245 224 219 210 211 210 209 210 213 212 218 220 222 216 212 205 210 213 215 218 219 221 218 217 215 215 215 217 220 222 224 227 226 226 229 233 224 230 235 240 239 239 240
273 249 221 219 211 214 215 215 213 214 218 222 223 212 212 220 221 223 223 224 222 222 218 216 216 212 215 216 209 215 220 226 222 220 226 222 219 228 231 230 232 235 237
291 275 247 227 212 217 219 212 212 216 221 223 218 210 206 220 228 230 231 231 220 219 217 215 223 222 213 207 200 202 212 219 216 203 213 226 223 224 227 231 232 235 238
281 287 267 241 219 215 213 212 213 216 218 219 217 217 215 219 225 231 233 228 226 224 219 226 221 220 215 204 199 206 210 211 200 209 222 219 228 235 230 230 232 236 240
292 289 284 263 235 224 215 212 210 212 215 215 216 217 221 222 228 234 236 230 227 227 227 220 210 220 220 209 206 203 212 218 217 219 216 226 235 230 229 237 242 244 245
292 278 275 269 244 229 216 210 208 209 215 216 219 223 227 230 236 239 241 242 240 232 222 210 214 214 212 209 207 213 216 227 231 231 221 221 230 232 233 237 241 244 247